Regional Weather Roundup
Issued by NWS

Home | Current Version | Previous Version | Graphics & Text | Print | Product List | Glossary On
Versions: 1 2 3 4 5 6 7 8 9 10 11 12 13 14 15 16 17 18 19 20 21 22 23 24 25 26 27 28 29 30 31 32 33 34 35 36 37 38 39 40 41 42 43 44 45 46 47 48 49 50
083
ASUS43 KMPX 240610
RWRMN
WEATHER ROUNDUP FOR MINNESOTA
NATIONAL WEATHER SERVICE TWIN CITIES/CHANHASSEN MN
1200 AM CST FRI FEB 24 2017


NOTE: "FAIR" INDICATES FEW OR NO CLOUDS BELOW 12,000 FEET WITH NO
SIGNIFICANT WEATHER AND/OR OBSTRUCTIONS TO VISIBILITY. N/A MEANS
CURRENT SKY AND/OR WEATHER CONDITIONS ARE NOT AVAILABLE.

MNZ060>063-068>070-240700-
   Twin Cities Metro

CITY           SKY/WX    TMP DP  RH WIND       PRES   REMARKS
TWIN CITIES    CLOUDY    29  21  72 N16       29.89F WCI  17
6HR MIN TEMP:  29; 6HR MAX TEMP:  32;

ST PAUL        CLOUDY    30  23  75 N15G21    29.91F WCI  19
CRYSTAL        CLOUDY    28  18  66 NE14      29.89F WCI  17
BLAINE         CLOUDY    30  21  69 NE16G22   29.91F WCI  19
LAKEVILLE      CLOUDY    28  23  80 N16       29.86F WCI  17
EDEN PRAIRIE   CLOUDY    29  21  72 N15G22    29.87F WCI  18
6HR MIN TEMP:  29; 6HR MAX TEMP:  31;

SOUTH ST PAUL  CLOUDY    31  23  73 N10G17    29.89S WCI  22
LAKE ELMO      CLOUDY    30  25  80 N13G18    29.90F WCI  20
$$
MNZ001>005-007-008-013>017-022>024-027-028-240700-
   Northwest Minnesota

CITY           SKY/WX    TMP DP  RH WIND       PRES   REMARKS
BEMIDJI        CLOUDY    15   8  74 N9        30.07R WCI   3
HALLOCK        CLEAR     14  10  85 N3        30.14S
ROSEAU         CLEAR      9   3  78 N3        30.12R
WARROAD        CLEAR     10   3  72 CALM      30.12R
THIEF RVR FALL CLEAR     15  10  80 NE7       30.13R WCI   5
CROOKSTON      CLEAR     19  12  73 NE8       30.15R WCI   9
FOSSTON        CLOUDY    16  10  79 N14G20    30.10S WCI   1
DETROIT LAKES  CLOUDY    19  14  79 N10G18    30.06S WCI   8
MOORHEAD       CLOUDY    21  12  68 N18       30.11S WCI   6
PARK RAPIDS    CLOUDY    19   8  62 N12       30.03S WCI   7
MAHNOMEN       FAIR      18   9  70 N17       30.08S WCI   2
$$
MNZ006-009>011-018-025>026-240700-
   North Central Minnesota

CITY           SKY/WX    TMP DP  RH WIND       PRES   REMARKS
BAUDETTE       CLOUDY    11   4  73 NW10      30.08R WCI  -3
FLAG ISLAND    CLEAR     10   3  72 N9        30.09S WCI  -2
INTL FALLS     CLEAR     12   6  77 NW6       30.07R WCI   3
6HR MIN TEMP:  12; 6HR MAX TEMP:  22;

WASKISH        CLEAR     12   7  79 NW6       30.10R WCI   3
BIG FORK       CLOUDY    16   9  73 NW3       30.06R
LONGVILLE      CLOUDY    18  10  73 N5        30.05R WCI  11
GRAND RAPIDS   CLOUDY    17  10  74 N9        30.05R WCI   6
CRANE LAKE     CLOUDY    16   9  73 CALM      30.07R
ORR            CLOUDY    16   9  73 CALM      30.01R
COOK           CLOUDY    16   9  73 CALM      30.03R
WALKER         FAIR      17   9  72 N7        30.06R WCI   7
$$
MNZ012-019>021-037-240700-
   Northeast Minnesota

CITY           SKY/WX    TMP DP  RH WIND       PRES   REMARKS
DULUTH         CLOUDY    21  15  78 N9        29.97R WCI  11
6HR MIN TEMP:  21; 6HR MAX TEMP:  26;

ELY            CLOUDY    18   9  68 CALM      30.01R
HIBBING        CLOUDY    17  11  77 N8        30.01R WCI   7
EVELETH        CLOUDY    20   8  61 N6        30.01R WCI  12
DULUTH HARBOR  CLOUDY    28  18  64 N16       30.02S WCI  17
TWO HARBORS    CLOUDY    25  16  68 N5        29.97S WCI  19
SILVER BAY     CLOUDY    21  16  79 CALM      29.98R
GRAND MARAIS     N/A     24  10  55 NE8       30.03R WCI  15
G MARAIS ARPRT CLOUDY    16   5  62 N10       29.94R WCI   3
$$
MNZ029>031-032-039>041-046>048-054>057-064-240700-
   West Central Minnesota

CITY           SKY/WX    TMP DP  RH WIND       PRES   REMARKS
FERGUS FALLS   CLOUDY    21  12  68 NE14G22   30.08F WCI   8
WHEATON        CLOUDY    21  16  79 N18G24    30.05F WCI   6
MORRIS         CLOUDY    25  19  80 N18       29.96F WCI  11
ALEXANDRIA     CLOUDY    23  17  78 N20G32    29.95F WCI   8
ELBOW LAKE     MOCLDY    23  18  82 NE14      30.01S WCI  11
WADENA         CLOUDY    19  16  86 N15       30.00F WCI   5
GLENWOOD       CLOUDY    25  18  74 N18G28    29.94F WCI  11
APPLETON       CLOUDY    28  19  69 N17       29.96S WCI  16
BENSON         CLOUDY    28  18  64 NE14G24   29.96S WCI  17
ORTONVILLE     CLOUDY    25  19  80 N22       29.97F WCI  10
MADISON        CLOUDY    28  25  86 N18G26    29.94F WCI  16
WILLMAR        FAIR      28  21  74 NE23G29   29.92F WCI  14
$$
MNZ033>034-036-042>043-049>051-058-059-240700-
   Central Minnesota

CITY           SKY/WX    TMP DP  RH WIND       PRES   REMARKS
ST CLOUD       CLOUDY    26  18  71 N13G22    29.94F WCI  15
6HR MIN TEMP:  26; 6HR MAX TEMP:  29;

SAUK CENTRE    FAIR      25  15  67 N15G26    29.95F WCI  12
PAYNESVILLE    PTCLDY    26  18  71 NE17G25   29.93S WCI  13
AITKIN         CLOUDY    21  12  68 N13       30.00R WCI   9
PINE RIVER     CLOUDY    19  12  73 N13       30.05F WCI   7
BRAINERD       CLOUDY    21  13  71 N14G24    30.00F WCI   8
STAPLES        CLOUDY    19  14  79 N14       30.00F WCI   6
LONG PRAIRIE   FAIR      23  16  74 N14G23    29.95F WCI  11
LITTLE FALLS   CLOUDY    25  16  68 N6G20     29.97F WCI  18
LITCHFIELD     CLOUDY    28  21  74 N18G26    29.90F WCI  16
BUFFALO        CLOUDY    28  19  71 N16G22    29.92R WCI  15
MAPLE LAKE     CLOUDY    28  22  76 N14G23    29.92S WCI  17
HUTCHINSON     MOCLDY    29  22  75 NE20G28   29.88F WCI  16
$$
MNZ037-044-045-052-053-240700-
   East Central Minnesota

CITY           SKY/WX    TMP DP  RH WIND       PRES   REMARKS
PRINCETON      CLOUDY    28  19  69 N12       29.94F WCI  18
MORA           CLOUDY    27  19  74 N6        29.94F WCI  20
CAMBRIDGE      CLOUDY    28  18  64 N8        29.92F WCI  20
RUSH CITY      CLOUDY    27  18  69 N9G20     29.93F WCI  17
MOOSE LAKE     CLOUDY    23  16  74 N8        29.98S WCI  14
HINCKLEY       FAIR      27  19  74 N12G20    29.96F WCI  16
CLOQUET        CLOUDY    21  16  79 N9G16     29.98S WCI  11
MCGREGOR       CLOUDY    21  18  86 N8        30.02R WCI  12
$$
MNZ071>073-080-081-089-090-097-098-240700-
   Southwest Minnesota

CITY           SKY/WX    TMP DP  RH WIND       PRES   REMARKS
MONTEVIDEO     CLOUDY    28  21  74 NE20G31   29.94F WCI  15
GRANITE FALLS  CLOUDY    30  23  74 N18       29.92F WCI  18
CANBY          CLOUDY    28  24  84 N18G26    29.93F WCI  15
MARSHALL       CLOUDY    28  22  78 NE18      29.90S WCI  15
REDWOOD FALLS  CLOUDY    29  19  66 NE15G25   29.87F WCI  18
OLIVIA         CLOUDY    30  23  74 NE20G30   29.88F WCI  18
PIPESTONE      CLOUDY    27  21  80 NE23G31   29.82S WCI  12
WINDOM         LGT SNOW  27  25  93 N22G28    29.81S WCI  12
WORTHINGTON    LGT SNOW  26  25  96 N21G30    29.79S VSB 1   WCI  12
JACKSON        LGT SNOW  28  27  93 N25G32    29.77S VSB 1   WCI  14
SLAYTON        CLOUDY    26  24  91 N18G25    29.82F WCI  12
$$
MNZ065>067-074>077-082>085-091>093-240700-
   South Central Minnesota

CITY           SKY/WX    TMP DP  RH WIND       PRES   REMARKS
MANKATO        LGT SNOW  28  26  92 NE20      29.82F FOG     WCI  15
NEW ULM        CLOUDY    28  21  74 NE16G28   29.84F WCI  17
ST JAMES         N/A     27  27 100 N16G24    29.82F WCI  14
FAIRMONT       LGT SNOW  27  26  96 N20G26    29.76F VSB 3/4 WCI  13
GLENCOE        CLOUDY    29  24  80 NE12G21   29.87F WCI  20
FARIBAULT      LGT SNOW  28  27  93 N14G20    29.85F WCI  17
OWATONNA       CLOUDY    28  27  93 N17G24    29.81F WCI  16
WASECA         CLOUDY    28  27  93 N22       29.81F WCI  15
ALBERT LEA     HVY SNOW  30  30 100 N21       29.75F VSB 1/4 WCI  17
$$
MNZ078>079-086>088-094>096-240700-
   Southeast Minnesota

CITY           SKY/WX    TMP DP  RH WIND       PRES   REMARKS
ROCHESTER      HVY SNOW  29  29 100 NE22G32   29.77F VSB 1/4 WCI  15
6HR MIN TEMP:  29; 6HR MAX TEMP:  35; 6HR PCP:  0.24;

RED WING       LGT SNOW  30  27  86 NE6       29.87R WCI  24
DODGE CENTER   LGT SNOW  28  28 100 NE17      29.80R VSB 3/4 WCI  16
WINONA         LGT SNOW  34  32  93 NE9       29.83R WCI  26
AUSTIN         CLOUDY    30  28  93 NE16      29.74F WCI  19
PRESTON        CLOUDY    31  30  96 NE17      29.75F VSB 1   WCI  20
$$
ABBREVIATIONS USED IN REMARKS
   TC - TEMPERATURES IN CELSIUS
  WCI - WIND CHILL INDEX
   HX - HEAT INDEX
  VSB - VISIBILITY
$$




USA.gov is the U.S. government's official web portal to all federal, state and local government web resources and services.